Location: Campillo
(40.8621°N, 4.2488°W)
Time: 11:11:25
(UTC+00:00)

NOSS 3-4 (A) - Pass Details

Date: 11 May 2021
Orbit: 872 x 1340 km, 63.4° (Epoch: 06 May)

Event Time Altitude Azimuth Distance (km) Brightness Sun altitude
Rises 23:01:13 0° 321° (NW) 3,888 7.7 -28.7°
Reaches altitude 10° 23:03:49 10° 316° (NW) 2,994 6.8 -28.8°
Maximum altitude 23:10:46 53° 243° (WSW) 1,461 4.2 -29.2°
Enters shadow 23:11:32 51° 223° (SW) 1,500 4.2 -29.3°
